Weather Roundup
Issued by NWS

Home | Current Version | Previous Version | Text Only | Print | Product List | Glossary On
Versions: 1 2 3 4 5 6 7 8 9 10 11 12 13 14 15 16 17 18 19 20 21 22 23 24 25 26 27 28 29 30 31 32 33 34 35 36 37 38 39 40 41 42 43 44 45 46 47 48 49 50
000
NZUS93 KARX 020210
HRRWXR

CURRENT HOURLY OBSERVATIONS ACROSS
MUCH OF THE UPPER MISSISSIPPI VALLEY
NATIONAL WEATHER SERVICE LA CROSSE WI
900 PM CDT WED JUL 01 2015


...SOUTHEAST MINNESOTA...


CITY           SKY/WX    TMP DP  RH WIND       PRES   REMARKS
ROCHESTER      PTCLDY    61  52  72 CALM      30.03R
ROCHESTER/MAYO FAIR      64  51  63 CALM      30.02S
WINONA         PTCLDY    61  54  77 CALM      30.00S
AUSTIN         CLEAR     57  52  82 CALM      30.01S
ALBERT LEA     CLEAR     59  52  77 NE5       30.01S
DODGE CENTER   CLEAR     59  54  82 NE5       30.02S
PRESTON        PTCLDY    57  54  91 CALM      30.02R
OWATONNA       CLEAR     63  52  67 CALM      30.01F
FARIBAULT      CLEAR     57  54  88 CALM      30.02S
$$

...ELSEWHERE IN MINNESOTA...


CITY           SKY/WX    TMP DP  RH WIND       PRES   REMARKS
MINNEAPOLIS    PTCLDY    69  52  54 SW6       30.00R
INTNL FALLS    PTCLDY    64  58  80 SE3       29.96R
DULUTH         PTCLDY    62  51  67 SE6       30.01R
RED WING       CLEAR     64  57  77 CALM      30.00R
REDWOOD FALLS  PTCLDY    64  56  75 SE5       29.99S
MANKATO        CLEAR     63  50  63 E5        30.01S
WORTHINGTON    CLOUDY    64  52  63 E9        29.99S
FAIRMONT       PTCLDY    63  54  72 NE5       30.00R
$$

...SOUTHWEST WISCONSIN...


CITY           SKY/WX    TMP DP  RH WIND       PRES   REMARKS
LA CROSSE      CLEAR     64  54  69 CALM      29.99R
PRAIRIE DU CHI PTCLDY    60  55  83 CALM      29.99S
BOSCOBEL       CLEAR     57  54  89 CALM      30.00R
LONE ROCK      CLEAR     59  54  83 CALM      30.00R
PLATTEVILLE    CLEAR     62  54  76 CALM      29.99F
FORT MC COY    CLEAR     59  52  76 CALM      30.01R
CAMP DOUGLAS   PTCLDY    55  55 100 CALM      29.99S
VIROQUA        FAIR      60  52  76 W3        30.01S
WIS DELLS      CLEAR     59  52  79 E5        30.00R
$$

...ELSEWHERE IN WISCONSIN...


CITY           SKY/WX    TMP DP  RH WIND       PRES   REMARKS
MILWAUKEE      PTCLDY    54  48  80 NE3       30.03R
MADISON        PTCLDY    61  52  72 CALM      29.99R
GREEN BAY      CLEAR     60  54  80 E6        30.01R
EAU CLAIRE     CLEAR     65  54  67 CALM      29.99S
BLACK RVR FLS  FAIR      58  55  89 CALM      29.99R
MEDFORD        CLEAR     57  50  78 CALM      30.01S
WAUSAU         CLEAR     66  45  46 N5        29.99R
WIS RAPIDS     CLEAR     60  52  74 CALM      30.00S
MARSHFIELD     CLEAR     62  47  57 CALM      30.00R
RICE LAKE      CLEAR     64  55  72 CALM      30.02S
$$

...NORTHEAST IOWA...


CITY           SKY/WX    TMP DP  RH WIND       PRES   REMARKS
DECORAH          N/A    N/A N/A N/A MISG        N/A
MASON CITY     CLEAR     58  53  84 E6        30.01R
CHARLES CITY   MOCLDY    59  55  88 NE6       30.00S
OELWEIN          N/A     61  55  82 NE6       29.99S
$$

...ELSEWHERE IN IOWA...


CITY           SKY/WX    TMP DP  RH WIND       PRES   REMARKS
DES MOINES     CLOUDY    71  57  61 E9        29.92S
IOWA CITY      CLOUDY    67  58  72 NE8       29.95S
FORT DODGE     CLEAR     63  52  67 NE8       29.98S
$$

...NORTHERN ILLINOIS...


CITY           SKY/WX    TMP DP  RH WIND       PRES   REMARKS
CHICAGO-OHARE  CLOUDY    56  50  80 NE8       30.00R
CHICAGO-MIDWAY CLOUDY    59  51  75 N8        29.99S
MOLINE         MOCLDY    69  55  60 NE9       29.93F
ROCKFORD       CLOUDY    63  53  70 E10       30.00R
PEORIA         MOCLDY    72  61  68 NE7       29.92S
$$

NOTE: "FAIR" INDICATES FEW OR NO CLOUDS BELOW 12,000 FEET WITH NO
SIGNIFICANT WEATHER AND/OR OBSTRUCTIONS TO VISIBILITY. WIND
SPEEDS ARE IN MILES-PER-HOUR.



USA.gov is the U.S. government's official web portal to all federal, state and local government web resources and services.